EW0349 Weather Reports


time (UTC)temp
C
wind
direction
speed
KPH
gust
KPH
rain 1hr
cm
rain 24hr
cm
rain mn
cm
humidity
%
barometer
mb
20260505060011 11 205 0.0 6.4 0.00 0.00 0.00 61 1013.2
20260505054504 11 285 0.0 3.2 0.00 0.00 0.00 62 1013.2
20260505053003 11 223 0.0 4.8 0.00 0.00 0.00 63 1013.2
20260505051506 11 215 1.6 6.4 0.00 0.00 0.00 64 1013.1
20260505041604 13 183 1.6 6.4 0.00 0.00 0.00 67 1012.3
20260505040101 13 186 0.0 3.2 0.00 0.00 0.00 68 1012.1
20260505034559 14 245 0.0 3.2 0.00 0.00 0.00 69 1011.8
20260505034501 14 245 0.0 3.2 0.00 0.00 0.00 69 1011.8
20260505033100 15 280 1.6 3.2 0.00 0.00 0.00 69 1011.5
20260505031601 15 273 1.6 6.4 0.00 0.00 0.00 69 1011.3
20260505030058 16 286 1.6 6.4 0.00 0.00 0.00 69 1011.1
20260505024606 16 286 3.2 9.7 0.00 0.00 0.00 68 1010.8
20260505023104 17 273 0.0 6.4 0.00 0.00 0.00 67 1010.6
20260505021557 18 188 3.2 14.5 0.00 0.00 0.00 64 1010.6
20260505020058 20 185 1.6 9.7 0.00 0.00 0.00 63 1010.5
20260505014556 20 290 3.2 11.3 0.00 0.00 0.00 62 1010.5
20260505013116 21 221 1.6 11.3 0.00 0.00 0.00 61 1010.6
20260505011607 21 235 1.6 9.7 0.00 0.00 0.00 61 1010.7
20260505010110 21 193 1.6 12.9 0.00 0.00 0.00 61 1010.7
20260505004553 21 339 1.6 8.0 0.00 0.00 0.00 60 1010.8
20260505003101 21 196 3.2 11.3 0.00 0.00 0.00 60 1010.8
20260505001553 21 217 4.8 11.3 0.00 0.00 0.00 59 1010.8
20260505000100 21 193 3.2 9.7 0.00 0.00 0.00 58 1010.9
20260504234550 21 194 3.2 9.7 0.00 0.00 0.00 60 1010.9
20260504233055 21 184 3.2 11.3 0.00 0.00 0.00 59 1011.1
20260504231547 21 278 3.2 12.9 0.00 0.00 0.00 61 1011.2
20260504230051 21 184 3.2 9.7 0.00 0.00 0.00 59 1011.3
20260504224546 21 219 3.2 11.3 0.00 0.00 0.00 60 1011.4
20260504223054 20 238 3.2 8.0 0.00 0.00 0.00 60 1011.7
20260504221542 20 215 1.6 9.7 0.00 0.00 0.00 61 1011.8
20260504220046 20 219 3.2 12.9 0.00 0.00 0.00 60 1012.1
20260504214547 20 187 1.6 8.0 0.00 0.00 0.00 60 1012.1
20260504213042 19 238 1.6 11.3 0.00 0.00 0.00 60 1012.3
20260504211538 19 83 1.6 12.9 0.00 0.00 0.00 61 1012.5
20260504210034 18 178 3.2 12.9 0.00 0.00 0.00 62 1012.6
20260504204532 18 180 1.6 8.0 0.00 0.00 0.00 62 1012.8
20260504203034 17 146 3.2 11.3 0.00 0.00 0.00 63 1012.9
20260504201528 17 187 1.6 8.0 0.00 0.00 0.00 64 1013.0
20260504200027 17 15 1.6 9.7 0.00 0.00 0.00 63 1013.1
20260504194525 16 188 4.8 14.5 0.00 0.00 0.00 62 1013.1
20260504193026 16 223 4.8 12.9 0.00 0.00 0.00 62 1013.2
20260504191525 15 180 1.6 11.3 0.00 0.00 0.00 63 1013.3
20260504190020 15 289 3.2 9.7 0.00 0.00 0.00 63 1013.5
20260504184520 14 199 1.6 12.9 0.00 0.00 0.00 62 1013.6
20260504183020 13 231 3.2 12.9 0.00 0.00 0.00 62 1013.5
20260504181526 13 275 3.2 14.5 0.00 0.00 0.00 62 1013.5
20260504180019 13 194 3.2 16.1 0.00 0.00 0.00 62 1013.5
20260504174518 13 169 1.6 11.3 0.00 0.00 0.00 61 1013.4
20260504173017 13 297 4.8 11.3 0.00 0.00 0.00 61 1013.4
20260504171516 13 267 1.6 12.9 0.00 0.00 0.00 60 1013.4
20260504081503 13 191 0.0 3.2 0.00 0.00 0.00 71 1009.4